Location: ????
(55.2778°N, 39.2433°E)
Time: 17:34:46
(UTC+00:00)

Cosmos 1340 - Pass Details

Date: 14 April 2024
Orbit: 437 x 438 km, 81.2° (Epoch: 24 May)

Event Time Altitude Azimuth Distance (km) Brightness Sun altitude
Rises 01:25:55 0° 341° (NNW) 2,467 6.3 -8.0°
Reaches altitude 10° 01:28:03 10° 334° (NNW) 1,592 5.2 -7.7°
Maximum altitude 01:31:20 42° 263° (W) 660 2.8 -7.3°
Drops below altitude 10° 01:34:38 10° 191° (S) 1,585 4.8 -6.9°
Sets 01:36:45 0° 184° (S) 2,454 5.8 -6.6°
